YAOGAN-27

Last updated on Mon Sep 07 2026 00:02:45 GMT+0000 (Coordinated Universal Time)

1 40878U 15040A 26249.59873787 -.00000109 00000+0 -17648-3 0 9994 2 40878 100.1255 232.4757 0008741 30.7559 329.4065 13.16074225528377
UTC large
Height (km)
Speed (km/s)
/
Latitude / Longitude
Inclination (degrees)
Orbital Period (minutes)
Azimuth
Elevation
Range (km)
Doppler Factor

Next 0 passes for location: London (51.5072 / 0.1276)

No passes found over London.
YAOGAN-27